Lapse_Rate
4.5 3.8 3.1 2.8 2.4 2.4 2.5 2.0 1.5 1.2 1.3 1.3 1.2 1.1 0.7 0.1 -1.6 -0.7 -0.1 1.0 -0.7 1.3 1.3 3.8 3.5 3.4 5.0 5.2 5.5 4.5 6.5 6.5 6.5 6.5 6.5 5.6 6.4 6.1 5.1 5.8 5.6 5.0 4.6 3.3 2.4
6.4 5.1 4.4 3.5 3.4 2.8 2.4 2.3 1.9 1.9 1.7 1.5 1.3 1.0 1.1 0.5 -1.1 -1.2 -0.1 1.7 0.3 1.3 3.3 4.9 5.0 4.4 4.3 4.6 4.8 5.9 6.5 6.5 6.5 6.5 6.5 6.2 6.0 5.5 6.0 5.5 5.7 5.7 2.2 1.5 2.8
7.0 7.0 6.3 5.2 4.4 3.6 2.9 2.2 1.9 2.2 2.4 2.1 1.8 1.3 1.1 0.8 1.0 3.0 3.6 1.6 2.3 2.0 5.0 5.9 6.6 5.6 5.1 4.9 4.4 5.5 6.5 6.5 6.3 5.3 5.1 6.1 5.8 5.4 6.2 6.5 5.0 5.6 2.9 1.9 3.1
6.8 6.8 6.9 6.6 5.8 5.0 3.2 2.5 2.1 2.4 2.8 2.8 2.5 2.3 1.8 1.2 6.5 5.9 3.2 2.9 3.1 3.2 5.0 5.4 5.9 6.0 6.4 6.5 4.7 6.5 5.9 6.0 6.0 5.8 5.7 6.5 5.8 5.9 5.4 4.8 4.4 4.2 4.7 2.4 2.7
7.4 7.3 7.2 6.9 6.4 4.8 3.9 2.7 2.2 2.0 2.2 2.7 3.0 3.1 2.6 4.8 3.1 3.8 4.1 3.3 3.1 4.1 4.8 5.5 5.9 5.7 6.5 6.4 5.8 6.5 6.5 6.1 5.8 5.6 5.6 5.4 6.0 5.9 5.1 3.3 3.1 3.6 4.2 2.1 2.5
7.3 7.1 7.2 7.1 6.8 6.1 5.5 3.7 2.2 2.0 2.1 2.4 2.9 3.3 3.6 6.3 4.2 5.3 5.5 5.2 5.0 5.2 6.0 5.8 6.1 6.1 5.8 6.2 6.4 6.0 6.0 6.1 5.5 5.0 5.6 6.3 6.2 6.1 4.6 4.4 4.0 3.8 3.5 2.1 2.7
7.7 7.3 6.8 7.0 6.7 6.1 5.2 4.7 1.7 1.6 2.1 2.3 2.8 4.1 6.2 1.7 3.5 3.2 3.0 3.8 5.7 6.1 6.8 6.3 6.3 6.1 5.9 6.5 5.4 5.8 6.5 6.5 6.4 5.9 6.3 4.7 6.5 6.5 3.9 4.0 4.5 4.2 3.4 2.5 2.2
7.8 7.4 7.1 6.5 6.5 6.3 5.6 2.9 0.8 1.4 1.7 2.3 2.9 4.7 5.9 1.9 3.0 1.7 2.5 3.6 4.9 5.4 6.4 6.2 6.2 6.0 5.6 5.5 6.0 6.5 6.5 6.5 6.5 6.5 6.1 6.3 6.5 6.5 4.6 4.8 4.8 4.6 4.7 3.2 2.1
7.7 7.5 7.2 6.8 6.5 6.0 5.0 2.9 1.1 1.4 1.6 2.6 2.5 4.0 5.1 4.9 4.4 3.8 3.9 5.0 6.2 6.3 5.9 7.5 7.1 5.8 6.2 6.5 6.5 6.5 6.5 6.5 6.5 6.5 6.5 6.5 6.5 6.5 4.1 5.1 5.8 5.7 4.7 4.4 1.6
7.8 8.3 7.6 7.2 6.5 5.8 5.0 2.5 2.0 3.4 3.8 4.9 7.1 6.1 4.5 4.7 6.6 6.8 4.9 5.7 5.7 6.3 6.3 5.9 5.2 6.5 6.5 6.5 6.5 6.5 6.5 6.5 6.5 6.5 6.5 6.5 6.5 6.5 4.6 5.1 5.9 3.4 2.0 2.1 0.9
8.0 7.8 7.6 7.2 6.9 5.9 5.2 0.6 5.1 5.0 5.9 6.8 6.8 5.5 5.4 6.3 6.8 6.9 6.6 5.8 6.5 6.3 6.5 5.8 6.5 6.5 6.5 6.5 6.5 6.5 6.5 6.5 6.5 6.5 6.5 6.5 6.5 6.5 6.0 5.4 5.4 3.8 2.7 2.6 2.2
7.6 7.6 7.6 7.5 6.9 5.8 3.8 4.7 7.3 8.5 6.4 7.7 7.4 6.3 6.6 6.6 7.1 3.8 6.8 6.7 6.3 6.5 6.5 6.5 6.5 6.5 6.5 6.5 6.5 6.5 6.5 6.5 6.5 6.5 6.5 6.5 6.5 6.5 6.5 6.5 5.5 5.2 3.2 2.0 1.8
7.3 7.3 7.3 7.0 6.6 4.4 4.5 5.9 7.6 7.4 6.5 7.0 7.0 7.0 6.2 5.9 6.5 5.0 6.1 5.4 6.5 6.5 6.5 6.5 6.5 6.5 6.5 6.5 6.5 6.5 6.5 6.5 6.5 6.5 6.5 6.5 6.5 6.5 6.5 6.3 5.9 6.4 4.0 3.1 1.9
6.8 6.6 6.9 7.0 5.7 4.3 4.1 7.1 6.4 6.7 6.5 6.5 6.6 5.6 7.1 6.7 6.5 6.0 6.7 6.1 6.3 6.5 6.5 6.5 6.5 6.5 6.5 6.5 6.5 6.5 6.5 6.5 6.5 6.5 6.5 6.5 6.5 6.5 6.5 6.5 6.5 6.4 6.3 2.7 2.2
6.9 7.0 7.7 7.6 5.8 4.6 5.8 6.4 6.2 6.5 6.5 6.5 6.6 5.7 5.9 6.3 6.4 6.0 5.2 6.5 6.5 6.5 6.5 6.5 6.5 6.5 6.5 6.5 6.5 6.5 6.5 6.5 6.5 6.5 6.5 6.5 6.5 6.5 6.5 6.5 6.5 6.5 6.1 2.8 2.7
7.1 7.1 7.1 5.5 4.1 4.4 6.9 5.7 5.8 6.5 6.5 6.5 6.5 6.5 6.5 6.4 6.5 6.4 6.1 6.2 6.0 6.5 6.5 6.5 5.9 6.5 6.5 6.5 6.5 6.5 6.5 6.5 6.5 6.5 6.5 6.5 6.5 6.5 6.5 6.5 6.5 6.5 6.4 4.5 2.6
6.8 6.7 6.9 7.6 4.9 6.5 6.7 6.1 6.5 6.5 6.5 6.5 6.5 6.5 6.5 6.5 6.5 6.5 6.5 6.5 6.5 6.5 6.5 6.5 6.5 6.5 6.5 6.5 6.5 6.5 6.5 6.5 6.5 6.5 6.5 6.5 6.5 6.5 6.5 6.5 6.5 6.5 6.3 5.1 3.8
7.5 7.3 6.3 6.7 6.9 6.5 6.1 6.5 6.5 6.5 6.5 6.5 6.5 6.5 6.5 6.5 6.5 6.5 6.5 6.5 6.5 6.5 6.5 6.5 6.5 6.5 6.5 6.5 6.5 6.5 6.5 6.5 6.5 6.5 6.5 6.5 6.5 6.5 6.5 6.5 6.1 6.3 5.4 4.0 4.3
7.3 4.5 3.8 3.1 6.1 5.7 6.6 6.5 6.5 6.5 6.5 6.5 6.5 6.5 6.5 6.5 6.5 6.5 6.5 6.5 6.5 6.5 6.5 6.5 6.5 6.5 6.5 6.5 6.5 6.5 6.5 6.5 6.5 6.5 6.5 6.5 6.5 6.5 6.5 6.5 6.5 6.3 6.3 4.2 5.4
6.9 6.2 3.4 5.8 6.3 6.2 6.6 6.5 6.5 6.5 6.5 6.5 6.5 6.5 6.5 6.5 6.5 6.5 6.5 6.5 6.5 6.5 6.5 6.5 6.5 6.5 6.5 6.5 6.5 6.5 6.5 6.5 6.5 6.5 6.5 6.5 6.5 6.5 6.5 6.5 6.5 6.5 6.3 5.4 6.6
5.2 6.3 4.2 4.6 5.6 6.2 6.5 6.5 6.5 6.9 6.8 6.5 6.5 6.5 6.5 6.5 6.5 6.5 6.5 6.5 6.5 6.5 6.5 6.5 6.5 6.5 6.5 6.5 6.5 6.5 6.5 6.5 6.5 6.5 6.5 6.5 6.5 6.5 6.5 6.5 6.5 6.5 6.7 6.3 5.2
6.7 6.5 5.1 6.2 6.6 6.3 6.5 6.5 6.4 6.6 6.9 6.5 6.5 6.5 6.5 6.5 6.5 6.5 6.5 6.5 6.7 6.5 6.5 6.5 6.5 6.5 6.5 6.5 6.5 6.5 6.5 6.5 6.5 6.5 6.5 6.5 6.5 6.5 6.5 6.5 6.5 6.5 6.8 6.3 5.7
6.5 5.5 4.6 5.8 6.5 6.5 6.5 6.5 6.6 6.5 6.5 6.5 6.5 6.5 6.5 6.5 6.5 6.5 6.5 6.6 6.7 6.5 6.5 6.5 6.5 6.5 6.5 6.5 6.5 6.5 6.5 6.5 6.5 6.5 6.5 6.5 6.5 6.5 6.5 6.5 6.4 6.4 6.6 7.1 7.4
6.4 6.5 4.3 6.3 6.4 6.6 6.5 6.5 6.5 6.7 6.5 6.6 6.5 6.5 6.5 6.5 6.5 6.5 6.5 6.5 6.1 6.5 6.8 6.6 6.5 6.5 6.5 6.5 6.5 6.5 6.5 6.5 6.5 6.5 6.5 6.5 6.5 6.5 6.5 6.5 6.5 6.3 5.8 5.8 6.9
7.0 6.6 5.6 6.5 6.2 6.5 6.5 6.5 6.5 6.5 6.6 6.5 6.5 6.5 6.5 6.5 6.5 6.5 6.5 6.5 6.5 6.3 6.5 6.5 6.5 6.5 6.5 6.5 6.5 6.5 6.5 6.5 6.5 6.5 6.5 6.5 6.5 6.5 6.5 6.5 6.4 6.3 6.9 6.5 7.0
7.0 6.7 5.7 5.8 6.1 6.5 6.5 6.5 6.5 6.5 6.5 6.5 6.5 6.5 6.5 6.5 6.5 6.5 6.5 6.5 6.5 6.5 6.5 6.5 6.5 6.5 6.5 6.5 6.5 6.5 6.5 6.5 6.5 6.5 6.5 6.5 6.5 6.5 6.5 6.6 6.3 6.7 7.0 7.0 7.2
6.4 6.5 6.7 6.2 6.5 6.5 6.5 6.5 6.5 6.5 6.7 6.8 6.5 6.5 6.5 6.5 6.3 5.8 5.8 5.8 6.4 6.5 6.5 6.5 6.5 6.5 6.5 6.5 6.5 6.5 6.5 6.5 6.5 6.5 6.5 6.5 6.5 6.5 6.5 6.5 6.5 6.4 6.5 7.0 7.0
Wind_Speed
16 16 17 18 19 20 22 22 23 25 25 26 27 28 30 31 33 4 7 13 10 10 6 5 3 4 3 3 4 4 2 5 7 6 6 7 6 4 4 4 3 5 4 5 16
17 17 18 18 19 20 20 22 23 26 27 28 27 28 29 30 10 10 14 12 17 12 5 7 5 6 2 4 4 5 5 9 8 7 10 13 4 7 3 6 4 3 5 12 15
17 18 18 19 20 21 21 21 23 26 27 27 27 27 29 26 5 6 2 14 9 17 4 5 1 5 5 4 6 5 11 10 12 10 9 15 8 5 4 6 7 5 6 11 10
17 18 19 19 20 23 22 23 24 26 28 27 26 26 29 2 6 3 1 3 6 4 2 4 4 5 5 10 8 7 9 9 13 14 10 14 13 9 6 10 8 9 6 15 14
16 17 19 21 22 22 23 25 26 28 28 27 24 21 8 4 12 10 7 1 2 5 5 5 7 7 6 5 7 9 15 14 14 15 17 14 13 10 11 11 9 9 7 14 15
17 18 20 21 22 22 24 25 28 30 28 26 22 18 2 7 5 8 4 3 7 5 4 6 7 7 5 7 10 8 10 15 12 12 6 8 7 2 13 6 9 9 12 10 13
19 20 21 23 23 23 25 28 31 32 31 27 21 6 7 22 6 20 16 7 4 6 8 5 7 4 3 7 8 8 13 9 5 5 6 7 9 9 14 7 10 12 11 10 10
18 20 20 23 22 24 28 30 36 36 32 24 12 3 9 8 16 14 7 10 9 10 6 8 5 6 6 6 7 5 4 5 3 1 5 2 10 12 15 8 15 16 17 11 12
16 18 20 22 22 25 30 35 42 37 23 10 2 4 11 10 6 11 11 8 3 5 6 6 2 6 4 3 3 3 13 10 5 4 4 5 12 10 10 10 17 17 18 13 8
18 19 21 23 24 28 31 41 34 12 6 6 4 2 7 6 4 7 6 7 6 6 3 5 4 5 2 4 15 8 7 6 5 4 6 10 19 11 13 9 18 11 9 9 9
19 21 22 23 25 28 25 6 6 5 6 7 8 7 16 6 8 4 5 7 2 4 6 5 4 12 11 11 10 10 8 11 1 5 7 9 14 9 10 8 10 9 9 8 7
19 20 21 22 24 26 6 4 4 10 13 10 20 25 29 17 13 24 3 2 4 8 4 4 17 11 10 9 10 12 14 20 12 11 13 13 20 10 8 8 11 13 10 7 11
18 18 19 21 23 7 4 6 17 19 5 12 14 14 10 18 25 32 9 6 8 4 12 15 6 16 13 14 15 15 17 14 15 14 16 12 20 8 6 7 13 18 9 7 18
19 18 18 20 7 5 5 10 20 13 4 10 8 11 9 9 9 11 18 11 7 19 7 13 16 17 13 18 16 18 17 17 15 10 8 6 13 9 9 15 14 17 16 8 14
19 18 16 12 3 4 5 16 19 1 5 10 6 6 9 12 1 5 8 13 18 9 10 11 8 19 22 19 17 13 17 15 16 9 4 4 4 4 4 9 15 16 17 8 16
18 19 19 7 1 6 13 10 4 2 9 8 4 5 5 8 4 2 6 6 7 3 9 13 7 4 7 8 15 12 14 15 13 5 10 7 6 6 4 8 7 15 17 4 15
20 19 15 9 4 2 8 4 3 8 7 12 9 11 15 7 8 5 4 8 6 6 12 8 22 16 9 7 7 6 3 4 3 2 5 6 5 14 10 12 16 19 17 15 14
20 20 11 14 15 4 1 4 9 13 22 17 14 17 6 8 6 5 5 7 7 4 2 7 7 13 7 18 6 8 9 5 8 5 4 7 5 5 4 7 13 12 9 3 13
21 3 4 5 18 5 2 5 3 6 5 13 17 5 14 20 11 7 2 5 9 16 7 5 6 3 5 12 15 9 7 8 5 3 3 4 5 7 5 11 17 12 18 7 14
4 5 5 9 11 2 4 11 8 9 13 15 12 9 14 17 10 3 7 5 7 8 13 5 8 5 3 4 12 10 5 4 3 8 6 4 4 5 3 11 19 16 14 10 4
2 4 4 4 5 2 5 6 8 8 11 8 17 18 15 13 15 6 9 5 5 8 13 7 4 4 1 2 4 5 10 1 4 4 10 1 5 5 6 8 9 14 11 15 6
2 3 3 3 1 2 3 4 6 11 12 13 9 13 3 6 7 4 4 3 5 8 9 8 5 4 5 4 4 4 4 6 4 2 3 4 5 2 6 6 7 8 14 14 13
2 3 3 3 1 3 5 7 6 13 14 6 8 16 8 5 5 8 3 9 5 4 6 8 5 4 4 3 7 6 6 5 4 4 5 3 3 3 12 12 7 8 13 17 18
2 3 3 1 2 4 4 5 6 6 11 7 10 12 1 2 2 6 5 3 5 5 13 6 5 3 2 2 1 2 6 8 4 3 1 12 6 4 4 9 6 10 10 5 12
2 3 3 2 3 2 4 5 11 9 5 7 7 10 10 4 4 3 6 6 10 7 4 5 3 5 6 2 3 3 3 4 3 1 1 3 1 5 5 10 1 10 8 11 11
2 2 2 3 5 6 5 4 10 14 3 10 7 9 5 4 3 4 6 5 4 5 6 3 3 2 2 6 6 2 4 3 4 4 10 9 0 3 3 11 4 4 10 10 10
1 3 1 2 2 2 3 4 15 11 10 11 9 5 5 2 1 6 6 6 8 3 3 6 4 4 1 8 4 3 2 5 5 9 13 3 2 7 13 12 9 4 5 7 9
Wind_Direction
359 358 357 356 352 351 347 345 340 336 334 332 330 328 327 323 321 288 243 227 191 197 154 127 139 193 128 240 205 129 133 240 230 228 244 325 357 320 277 276 254 223 179 190 136
351 352 351 351 347 346 343 338 333 331 333 332 329 328 326 326 310 271 249 242 220 165 166 203 192 170 213 206 224 158 178 232 204 250 288 294 278 290 301 292 292 341 14 124 148
341 341 341 341 339 337 333 329 328 330 329 330 328 329 324 325 293 251 322 217 209 175 181 181 201 169 215 192 213 214 225 241 270 262 251 272 284 242 238 291 236 247 174 162 167
338 336 333 333 333 330 326 323 322 323 323 327 326 327 321 289 294 336 42 175 181 189 242 184 178 187 215 216 221 243 243 244 258 262 261 259 270 259 229 242 232 237 179 172 186
338 335 332 329 326 326 320 317 316 314 316 323 325 330 334 310 248 280 298 352 204 176 203 200 190 178 208 222 242 233 249 255 254 253 257 270 259 251 259 255 256 252 215 186 190
343 337 331 328 323 320 314 311 309 308 311 317 320 325 261 274 261 275 43 298 230 236 209 189 229 202 269 233 241 261 246 251 252 255 253 266 275 88 264 253 270 264 252 210 185
331 330 329 326 324 318 313 310 307 304 308 309 309 288 251 246 296 305 318 276 248 218 241 219 238 207 280 304 253 252 268 278 252 231 236 279 287 254 264 255 257 264 247 215 199
330 331 332 329 321 318 314 312 306 302 300 299 296 234 252 263 272 284 223 267 253 242 213 239 244 244 185 246 313 292 262 256 171 61 267 207 269 273 278 283 273 261 258 217 186
334 336 334 333 327 319 318 314 304 301 296 269 185 180 264 293 249 253 197 237 263 260 262 258 230 217 208 192 304 233 256 260 297 221 249 224 280 257 285 280 273 260 261 215 162
329 331 333 333 330 322 327 314 299 316 81 157 244 318 259 265 277 307 183 212 218 284 264 206 212 207 125 148 232 227 257 234 218 278 235 259 271 278 283 318 283 233 226 199 163
329 330 329 331 333 325 334 340 11 341 39 264 252 261 297 293 305 248 8 347 251 199 206 222 185 219 196 212 232 239 248 251 191 237 292 265 268 265 287 318 293 271 226 239 177
328 326 323 327 327 324 342 11 317 301 295 262 264 264 260 270 286 278 147 214 219 222 202 257 236 210 213 222 236 238 248 260 275 266 261 272 271 241 265 275 293 278 248 204 144
316 321 329 333 318 344 318 278 337 343 275 284 251 248 240 195 236 253 176 203 203 235 210 223 230 198 203 219 228 236 236 250 249 267 266 271 276 290 295 296 303 297 243 176 164
321 322 333 337 335 318 282 344 337 328 306 279 229 245 200 185 240 220 218 193 211 218 206 247 239 246 223 223 209 237 230 242 250 243 255 183 280 261 273 283 281 280 284 200 179
320 316 318 324 253 283 304 342 331 174 294 270 227 219 179 175 283 202 152 175 217 179 167 224 199 203 225 224 213 234 246 235 240 242 223 220 268 320 180 272 273 273 278 188 183
314 318 320 305 254 245 308 346 349 199 241 270 284 309 153 230 249 359 152 149 178 221 266 238 298 212 231 228 229 233 250 264 244 214 245 171 178 256 210 240 277 286 269 226 188
318 313 305 289 255 339 9 9 231 224 286 235 346 333 314 229 227 203 174 188 168 155 224 258 253 260 257 280 262 185 173 244 249 228 240 195 220 261 266 267 262 263 269 284 209
305 300 279 255 254 271 37 227 239 214 235 303 335 307 261 235 256 226 195 190 224 155 142 193 287 214 218 214 199 208 179 179 210 189 243 208 235 246 245 281 294 258 258 195 164
318 294 264 233 239 148 253 245 254 258 36 346 326 302 15 360 342 322 301 229 196 203 193 207 245 267 227 194 187 228 227 195 181 180 128 223 283 302 14 2 344 32 2 219 174
317 309 269 273 194 109 235 255 241 328 333 330 310 342 348 322 318 280 21 343 342 5 355 259 262 258 296 124 220 203 175 210 241 197 236 227 235 246 359 48 328 3 7 40 331
24 332 282 292 105 117 259 245 299 289 317 333 315 298 303 317 325 19 9 52 19 340 354 358 211 260 296 26 208 176 226 180 133 152 220 150 262 203 162 104 315 360 349 7 7
232 281 256 339 264 223 240 223 286 287 307 301 279 285 281 348 327 32 38 314 80 68 3 334 300 222 209 216 231 185 206 160 156 170 155 155 267 100 179 162 138 351 330 342 349
263 264 316 122 235 267 278 293 285 303 300 282 291 303 330 13 345 7 47 341 357 50 89 318 341 271 176 335 19 31 18 18 127 126 179 150 250 89 88 56 37 51 333 6 20
286 305 309 22 16 294 318 276 283 289 288 293 281 270 1 7 310 306 339 279 294 137 142 296 260 4 38 191 211 359 32 35 52 65 270 219 225 121 121 119 16 349 139 255 9
226 247 232 278 314 288 302 296 309 307 329 318 339 1 347 322 314 334 332 344 342 9 197 152 274 332 298 353 211 107 13 2 122 237 88 302 110 203 179 144 196 347 15 115 38
252 253 344 289 303 18 340 301 339 357 296 326 299 324 341 335 359 336 359 22 280 327 353 303 272 329 282 351 38 307 291 271 246 132 290 262 291 25 105 96 109 45 58 63 82
199 293 204 246 320 21 265 318 316 320 296 335 340 327 338 301 249 246 231 243 242 264 345 341 345 358 323 336 303 319 6 217 222 172 196 274 26 93 101 97 97 49 61 56 40